INTELSAT 12 (IS-12)

Last updated on Wed Nov 03 2021 00:02:34 GMT+0000 (Coordinated Universal Time)

1 26590U 00068A 21306.21917057 -.00000137 00000-0 00000-0 0 9992 2 26590 4.1225 81.7603 0010078 174.3774 228.9631 0.99030552 34788

Satellite not in orbit

INTELSAT 12 (IS-12)